User: anonymous   Login
Location: Bremen
(53.0793°N, 8.8017°E)
Time: 08:51:39
(UTC+01:00)
Language:

A-11 Canister half - Orbit

View from above orbital plane
View from above orbital plane
View from above satellite
View from above satellite

Ground track
Ground track

The orbit data is extracted from the following two-line orbital elements,

1 00053U 60009E   21336.88971865 -.00000121  00000-0 -36305-3 0  9996
2 00053  47.2786  53.9357 0100517 217.2334 142.1454 12.17265914733543
Epoch (UTC): 02 December 2021 21:21:11
Eccentricity: 0.0100517
inclination: 47.2786°
perigee height: 1524 km
apogee height: 1685 km
right ascension of ascending node: 53.9357°
argument of perigee: 217.2334°
revolutions per day: 12.17265914
mean anomaly at epoch: 142.1454°
orbit number at epoch: 73354

The dashed part of the orbit path shows where the satellite is in the earth's shadow,  

DLR